User: anonymous   Login
Location: Unspecified
(0.0000°N, 0.0000°E)
Time: 06:42:48
(UTC+00:00)
Language:

Oscar 18 - Orbit

View from above orbital plane
View from above orbital plane
View from above satellite
View from above satellite

Ground track
Ground track

The orbit data is extracted from the following two-line orbital elements,

1 20441U 90005F   19082.84595240  .00000017  00000-0  22476-4 0  9995
2 20441  98.6608  27.3089 0012478  58.6231   0.2042 14.32797526523808
Epoch (UTC): 23 March 2019 20:18:10
Eccentricity: 0.0012478
inclination: 98.6608°
perigee height: 773 km
apogee height: 791 km
right ascension of ascending node: 27.3089°
argument of perigee: 58.6231°
revolutions per day: 14.32797526
mean anomaly at epoch: 0.2042°
orbit number at epoch: 52380

The dashed part of the orbit path shows where the satellite is in the earth's shadow,  

DLR